SB KEPS @ AMSAT $ORB12131.O Orbital Elements 12131.OSCAR
HR AMSAT ORBITAL ELEMENTS FOR OSCAR SATELLITES FROM WA5QGD FORT WORTH,TX May 10, 2012 Send SUBSCRIBE KEPS/UNSUBSCRIBE KEPS to [email protected] only BID: ORB12131.O TO ALL RADIO AMATEURS BT
Satellite: AO-07 Catalog number: 07530 Epoch time: 12130.51946505 Element set: 0378 Inclination: 101.4003 deg RA of node: 129.2234 deg Eccentricity: 0.0011992 Arg of perigee: 359.6104 deg Mean anomaly: 000.4961 deg Mean motion: 12.53589205 rev/day Decay rate: -2.7e-07 rev/day^2 Epoch rev: 71520 Checksum: 260
Satellite: FO-29 Catalog number: 24278 Epoch time: 12130.80587858 Element set: 0842 Inclination: 098.5832 deg RA of node: 236.4872 deg Eccentricity: 0.0351033 Arg of perigee: 128.6072 deg Mean anomaly: 234.7054 deg Mean motion: 13.52982159 rev/day Decay rate: -4.1e-07 rev/day^2 Epoch rev: 77676 Checksum: 332
Satellite: SO-33 Catalog number: 25509 Epoch time: 12130.55954818 Element set: 0230 Inclination: 031.4331 deg RA of node: 192.2909 deg Eccentricity: 0.0352940 Arg of perigee: 225.3348 deg Mean anomaly: 131.7994 deg Mean motion: 14.28725504 rev/day Decay rate: 4.96e-06 rev/day^2 Epoch rev: 70712 Checksum: 299
Satellite: RS-22 Catalog number: 27939 Epoch time: 12131.74863048 Element set: 342 Inclination: 097.8148 deg RA of node: 334.4814 deg Eccentricity: 0.0013935 Arg of perigee: 028.4165 deg Mean anomaly: 331.7796 deg Mean motion: 14.63999574 rev/day Decay rate: 4.65e-06 rev/day^2 Epoch rev: 46040 Checksum: 334
Satellite: VO-52 Catalog number: 28650 Epoch time: 12130.59400050 Element set: 97 Inclination: 097.5996 deg RA of node: 163.4327 deg Eccentricity: 0.0026728 Arg of perigee: 165.1933 deg Mean anomaly: 195.0074 deg Mean motion: 14.82880770 rev/day Decay rate: 1.250e-05 rev/day^2 Epoch rev: 37925 Checksum: 312
Satellite: HO-68 Catalog number: 36122 Epoch time: 12131.21175680 Element set: 448 Inclination: 100.3641 deg RA of node: 191.3188 deg Eccentricity: 0.0007348 Arg of perigee: 193.7359 deg Mean anomaly: 166.3569 deg Mean motion: 13.16295094 rev/day Decay rate: -4.4e-07 rev/day^2 Epoch rev: 11539 Checksum: 302
/EX SB KEPS @ AMSAT $ORB12131.D Orbital Elements 12131.MICROS
HR AMSAT ORBITAL ELEMENTS FOR THE MICROSATS FROM WA5QGD FORT WORTH,TX May 10, 2012 Send SUBSCRIBE KEPS/UNSUBSCRIBE KEPS to [email protected] only BID: ORB12131.D TO ALL RADIO AMATEURS BT
Satellite: UO-11 Catalog number: 14781 Epoch time: 12130.93331720 Element set: 0873 Inclination: 097.9559 deg RA of node: 190.7822 deg Eccentricity: 0.0009387 Arg of perigee: 150.7399 deg Mean anomaly: 209.4343 deg Mean motion: 14.80414107 rev/day Decay rate: 5.51e-06 rev/day^2 Epoch rev: 51427 Checksum: 305
Satellite: AO-16 Catalog number: 20439 Epoch time: 12130.86854826 Element set: 0472 Inclination: 098.4277 deg RA of node: 075.3216 deg Eccentricity: 0.0010054 Arg of perigee: 275.0691 deg Mean anomaly: 084.9343 deg Mean motion: 14.32046164 rev/day Decay rate: 8.0e-07 rev/day^2 Epoch rev: 16451 Checksum: 291
Satellite: LO-19 Catalog number: 20442 Epoch time: 12130.89736715 Element set: 0389 Inclination: 098.3932 deg RA of node: 078.4891 deg Eccentricity: 0.0010975 Arg of perigee: 264.6321 deg Mean anomaly: 095.3603 deg Mean motion: 14.32264934 rev/day Decay rate: 8.3e-07 rev/day^2 Epoch rev: 16470 Checksum: 316
Satellite: AO-27 Catalog number: 22825 Epoch time: 12130.88788801 Element set: 0100 Inclination: 098.5726 deg RA of node: 074.3043 deg Eccentricity: 0.0008942 Arg of perigee: 037.3457 deg Mean anomaly: 322.8341 deg Mean motion: 14.29453918 rev/day Decay rate: 8.9e-07 rev/day^2 Epoch rev: 97100 Checksum: 308
Satellite: IO-26 Catalog number: 22826 Epoch time: 12130.89609414 Element set: 848 Inclination: 098.5668 deg RA of node: 074.6926 deg Eccentricity: 0.0009497 Arg of perigee: 031.2282 deg Mean anomaly: 328.9462 deg Mean motion: 14.29727323 rev/day Decay rate: 8.7e-07 rev/day^2 Epoch rev: 97113 Checksum: 340
Satellite: GO-32 Catalog number: 25397 Epoch time: 12130.59169200 Element set: 770 Inclination: 098.3589 deg RA of node: 111.2072 deg Eccentricity: 0.0001973 Arg of perigee: 060.9554 deg Mean anomaly: 299.1811 deg Mean motion: 14.23271334 rev/day Decay rate: -1.58e-06 rev/day^2 Epoch rev: 71853 Checksum: 299
Satellite: NO-44 Catalog number: 26931 Epoch time: 12130.70803345 Element set: 35 Inclination: 067.0530 deg RA of node: 219.5119 deg Eccentricity: 0.0007365 Arg of perigee: 270.4438 deg Mean anomaly: 089.5817 deg Mean motion: 14.29790386 rev/day Decay rate: -4.6e-07 rev/day^2 Epoch rev: 55374 Checksum: 305
Satellite: SO-50 Catalog number: 27607 Epoch time: 12130.79446350 Element set: 756 Inclination: 064.5586 deg RA of node: 051.6858 deg Eccentricity: 0.0084215 Arg of perigee: 255.9816 deg Mean anomaly: 103.1923 deg Mean motion: 14.72347326 rev/day Decay rate: 4.51e-06 rev/day^2 Epoch rev: 50431 Checksum: 304
Satellite: CO-55 Catalog number: 27844 Epoch time: 12130.54733231 Element set: 0371 Inclination: 098.7028 deg RA of node: 139.4878 deg Eccentricity: 0.0009835 Arg of perigee: 340.2684 deg Mean anomaly: 019.8117 deg Mean motion: 14.21008576 rev/day Decay rate: 2.27e-06 rev/day^2 Epoch rev: 45940 Checksum: 311
Satellite: CO-57 Catalog number: 27848 Epoch time: 12130.68509383 Element set: 0322 Inclination: 098.7118 deg RA of node: 138.9406 deg Eccentricity: 0.0009821 Arg of perigee: 346.1491 deg Mean anomaly: 013.9410 deg Mean motion: 14.20762201 rev/day Decay rate: 2.09e-06 rev/day^2 Epoch rev: 45936 Checksum: 301
Satellite: AO-51 Catalog number: 28375 Epoch time: 12130.47187804 Element set: 0262 Inclination: 098.1441 deg RA of node: 097.5575 deg Eccentricity: 0.0083309 Arg of perigee: 157.5828 deg Mean anomaly: 202.9032 deg Mean motion: 14.40936248 rev/day Decay rate: 1.81e-06 rev/day^2 Epoch rev: 41319 Checksum: 308
Satellite: CP3 Catalog number: 31129 Epoch time: 12130.93311409 Element set: 0163 Inclination: 097.8806 deg RA of node: 140.9602 deg Eccentricity: 0.0099977 Arg of perigee: 241.8810 deg Mean anomaly: 117.2315 deg Mean motion: 14.53028779 rev/day Decay rate: 6.34e-06 rev/day^2 Epoch rev: 26842 Checksum: 301
Satellite: CO-65 Catalog number: 32785 Epoch time: 12130.71652676 Element set: 303 Inclination: 097.8023 deg RA of node: 192.6741 deg Eccentricity: 0.0014333 Arg of perigee: 183.4496 deg Mean anomaly: 176.6585 deg Mean motion: 14.82891114 rev/day Decay rate: 6.71e-06 rev/day^2 Epoch rev: 21806 Checksum: 315
Satellite: PRISM Catalog number: 33493 Epoch time: 12130.88999736 Element set: 0680 Inclination: 098.1656 deg RA of node: 270.5585 deg Eccentricity: 0.0020032 Arg of perigee: 063.6191 deg Mean anomaly: 296.7075 deg Mean motion: 14.83701692 rev/day Decay rate: 2.242e-05 rev/day^2 Epoch rev: 17807 Checksum: 320
Satellite: SOHLA-1 Catalog number: 33496 Epoch time: 12130.91742107 Element set: 0727 Inclination: 098.1008 deg RA of node: 242.9144 deg Eccentricity: 0.0006764 Arg of perigee: 154.3331 deg Mean anomaly: 205.8210 deg Mean motion: 14.69942760 rev/day Decay rate: 2.54e-06 rev/day^2 Epoch rev: 17662 Checksum: 284
Satellite: SO-67 Catalog number: 35870 Epoch time: 12130.96367138 Element set: 0939 Inclination: 097.2353 deg RA of node: 168.0565 deg Eccentricity: 0.0001470 Arg of perigee: 004.9015 deg Mean anomaly: 113.3043 deg Mean motion: 15.23500480 rev/day Decay rate: 3.488e-05 rev/day^2 Epoch rev: 14679 Checksum: 300
Satellite: TISAT-1 Catalog number: 36799 Epoch time: 12131.86605452 Element set: 960 Inclination: 098.0640 deg RA of node: 207.9283 deg Eccentricity: 0.0013631 Arg of perigee: 296.7018 deg Mean anomaly: 063.2792 deg Mean motion: 14.81825104 rev/day Decay rate: 1.405e-05 rev/day^2 Epoch rev: 9896 Checksum: 313
Satellite: STUDSAT Catalog number: 36801 Epoch time: 12131.85589347 Element set: 393 Inclination: 098.0693 deg RA of node: 208.4714 deg Eccentricity: 0.0011606 Arg of perigee: 281.1926 deg Mean anomaly: 078.7984 deg Mean motion: 14.83940625 rev/day Decay rate: 3.776e-05 rev/day^2 Epoch rev: 9898 Checksum: 344
Satellite: FO-69 Catalog number: 37227 Epoch time: 12130.23193273 Element set: 0177 Inclination: 071.9713 deg RA of node: 037.9182 deg Eccentricity: 0.0015878 Arg of perigee: 028.7502 deg Mean anomaly: 331.4538 deg Mean motion: 14.77037489 rev/day Decay rate: 4.90e-06 rev/day^2 Epoch rev: 03034 Checksum: 309
Satellite: FO-70 Catalog number: 37380 Epoch time: 12130.23095138 Element set: 0180 Inclination: 071.9738 deg RA of node: 038.4300 deg Eccentricity: 0.0016715 Arg of perigee: 025.5646 deg Mean anomaly: 334.6350 deg Mean motion: 14.76790414 rev/day Decay rate: 4.59e-06 rev/day^2 Epoch rev: 03023 Checksum: 279
Satellite: ALMASAT-1 Catalog number: 38078 Epoch time: 12131.84005545 Element set: 199 Inclination: 069.4976 deg RA of node: 041.7958 deg Eccentricity: 0.0763704 Arg of perigee: 295.3534 deg Mean anomaly: 057.0503 deg Mean motion: 14.08264611 rev/day Decay rate: 1.6117e-04 rev/day^2 Epoch rev: 1229 Checksum: 309
Satellite: XATCOBEO Catalog number: 38082 Epoch time: 12131.72470761 Element set: 229 Inclination: 069.4958 deg RA of node: 041.0664 deg Eccentricity: 0.0747456 Arg of perigee: 294.8762 deg Mean anomaly: 057.6740 deg Mean motion: 14.13933230 rev/day Decay rate: 3.8018e-04 rev/day^2 Epoch rev: 1229 Checksum: 308
/EX SB KEPS @ AMSAT $ORB12131.W Orbital Elements 12131.WEATHER
HR AMSAT ORBITAL ELEMENTS FOR WEATHER SATELLITES FROM WA5QGD FORT WORTH,TX May 10, 2012 Send SUBSCRIBE KEPS/UNSUBSCRIBE KEPS to [email protected] only BID: ORB12131.W TO ALL RADIO AMATEURS BT
Satellite: NOAA-10 Catalog number: 16969 Epoch time: 12131.52201736 Element set: 914 Inclination: 098.5850 deg RA of node: 161.2395 deg Eccentricity: 0.0012385 Arg of perigee: 349.6606 deg Mean anomaly: 010.4327 deg Mean motion: 14.27548618 rev/day Decay rate: 1.88e-06 rev/day^2 Epoch rev: 33449 Checksum: 308
